Yatton Keynell, United Kingdom

6:30 AM BST on April 21, 2019 (GMT +0100)
Yatton Keynell

Weather History for 03740 - June, 2003

Change the Weather History Date:

Saturday, June 21, 2003

  Actual Average Record
Temperature  
Mean Temperature 62 °F -  
Max Temperature 73 °F 68 °F - ()
Min Temperature 50 °F 52 °F - ()
Degree Days  
Heating Degree Days 4    
Growing Degree Days 12 (Base 50)    
Moisture  
Dew Point 48 °F    
Average Humidity 62    
Maximum Humidity 82    
Minimum Humidity 44    
Precipitation  
Precipitation 0.00 in 0.07 in - ()
Sea Level Pressure  
Sea Level Pressure 30.07 in    
Wind  
Wind Speed 6 mph ()    
Max Wind Speed 10 mph    
Max Gust Speed -    
Visibility 6.2 miles    
Events Rain    
T = Trace of Precipitation, MM = Missing Value Source: Averaged Metar Reports

Daily Weather History Graph

Daily Weather History Graph

Search for Another Location

Airport or City:

Astronomy

Jun. 21, 2003 Rise Set
Actual Time 4:50 AM BST 9:28 PM BST
Civil Twilight 4:02 AM BST 10:16 PM BST
Nautical Twilight 2:48 AM BST 11:31 PM BST
Astronomical Twilight 1:41 AM BST 12:37 AM BST
Moon 1:30 AM BST 12:47 PM BST
Length of Visible Light 18h 13m
Length of Day
16h 38m
Waning Gibbous, 52% of the Moon is Illuminated
Jun 21
Waning Gibbous
Jun 21
Last Quarter
Jun 29
New
Jul 7
First Quarter
Jul 13
Full

Hourly Weather History & Observations

Time (BST) Temp. Dew Point Humidity Pressure Visibility Wind Dir Wind Speed Gust Speed Precip Events Conditions
12:50 AM 51.8 °F 44.6 °F 76% 30.18 in - North 5.8 mph - N/A   Clear
1:50 AM 50.0 °F 44.6 °F 82% 30.18 in - NNE 4.6 mph - N/A   Clear
2:50 AM 50.0 °F 44.6 °F 82% 30.15 in - NE 6.9 mph - N/A   Clear
3:50 AM 50.0 °F 42.8 °F 76% 30.15 in - NE 6.9 mph - N/A   Clear
4:50 AM 50.0 °F 44.6 °F 82% 30.15 in - NE 6.9 mph - N/A   Clear
5:50 AM 50.0 °F 44.6 °F 82% 30.15 in - NNE 3.5 mph - N/A   Clear
6:50 AM 51.8 °F 46.4 °F 82% 30.15 in - NE 3.5 mph - N/A   Clear
7:50 AM 53.6 °F 42.8 °F 67% 30.15 in - ENE 10.4 mph - N/A   Clear
8:50 AM 55.4 °F 42.8 °F 63% 30.15 in - NE 8.1 mph - N/A   Clear
9:50 AM 60.8 °F 46.4 °F 59% 30.12 in - ENE 8.1 mph - N/A   Clear
10:50 AM 64.4 °F 48.2 °F 56% 30.12 in - ESE 5.8 mph - N/A   Clear
11:50 AM 66.2 °F 50.0 °F 56% 30.09 in - SE 5.8 mph - N/A   Clear
12:50 PM 69.8 °F 48.2 °F 46% 30.09 in - SE 10.4 mph - N/A   Clear
1:50 PM 69.8 °F 50.0 °F 49% 30.06 in - SE 5.8 mph - N/A   Clear
2:50 PM 73.4 °F 51.8 °F 47% 30.06 in - SE 8.1 mph - N/A   Clear
3:50 PM 73.4 °F 50.0 °F 44% 30.04 in - SE 9.2 mph - N/A   Clear
4:50 PM 73.4 °F 51.8 °F 47% 30.01 in - SE 10.4 mph - N/A   Clear
5:50 PM 71.6 °F 50.0 °F 46% 30.01 in - SE 10.4 mph - N/A   Clear
6:50 PM 71.6 °F 50.0 °F 46% 29.98 in - SE 10.4 mph - N/A   Clear
7:50 PM 68.0 °F 50.0 °F 52% 29.95 in 6.2 mi SSE 8.1 mph - N/A Rain Light Rain Showers
8:50 PM 66.2 °F 51.8 °F 60% 29.95 in 6.2 mi SE 6.9 mph - N/A Rain Light Rain Showers
9:50 PM 62.6 °F 50.0 °F 63% 29.95 in - ESE 5.8 mph - N/A   Clear
10:50 PM 60.8 °F 50.0 °F 68% 29.95 in - East 6.9 mph - N/A   Clear
11:50 PM 60.8 °F 48.2 °F 63% 29.92 in - ESE 8.1 mph - N/A   Clear